[[[{"header":{"parameterUnit":"kt","parameterCategory":2,"dx":1,"dy":1,"la1":30.253999710083008,"la2":30.299108505249023,"lo1":-89.0895004272461,"lo2":-89.04439544677734,"nx":28,"ny":28,"refTime":"2022-10-14T21:00:00:Z","depth":0,"parameterNumber":1,"parameterNumberName":"U-component_of_WINDS"},"data":[-5.3493,-5.3604,-5.36,-5.3725,-5.3741,-5.3825,-5.3854,-5.389,-5.3917,-5.4016,-5.4071,-5.4077,-5.4102,-5.4166,-5.4226,-5.4226,-5.4252,-5.4295,-5.4289,-5.4101,-5.4075,-5.4049,-5.4023,-5.4301,-5.4301,-5.4483,-5.4485,-5.4486,-5.3356,-5.3375,-5.3439,-5.3499,-5.3554,-5.351,-5.3553,-5.3601,-5.3677,-5.3712,-5.3766,-5.3852,-5.3919,-5.3929,-5.3992,-5.4043,-5.4025,-5.406,-5.4056,-5.4061,-5.386,-5.3832,-5.4074,-5.4074,-5.4074,-5.4074,-5.4074,-5.4074,-5.3106,-5.3173,-5.3206,-5.3276,-5.3304,-5.3344,-5.3406,-5.3412,-5.3474,-5.3541,-5.3522,-5.3607,-5.364,-5.3713,-5.3735,-5.3801,-5.3761,-5.3797,-5.3806,-5.3816,-5.3827,-5.3565,-5.3812,-5.3811,-5.381,-5.381,-5.3809,0,-5.2921,-5.2912,-5.2974,-5.3034,-5.3085,-5.3131,-5.3172,-5.321,-5.3188,-5.3241,-5.3316,-5.3358,-5.3441,-5.3511,-5.3568,-5.3584,-5.3542,-5.3537,-5.3562,-5.3573,-5.3575,-5.3575,-5.3248,-5.353,-5.3528,-5.3526,-5.3524,-5.3524,-5.2667,-5.2746,-5.2778,-5.2822,-5.2842,-5.2914,-5.2955,-5.2929,-5.2974,-5.302,-5.308,-5.3149,-5.3203,-5.3324,-5.3328,-5.339,-5.337,-5.3478,-5.3379,-5.3386,-5.3371,-5.3366,-5.3374,-5.3498,-5.3501,-5.3504,-5.3506,0,-5.2525,-5.2516,-5.2636,-5.2659,-5.2667,-5.2751,-5.277,-5.2835,-5.2832,-5.2922,-5.2941,-5.2937,-5.3011,-5.2997,-5.3079,-5.3069,-5.3206,-5.3185,-5.3194,-5.3189,-5.3285,-5.3276,-5.3597,-5.3638,-5.335,-5.3353,-5.3355,0,-5.2305,-5.2409,-5.2389,-5.2459,-5.2574,-5.2545,-5.266,-5.2669,-5.2696,-5.2766,-5.2716,-5.2783,-5.2755,-5.2819,-5.2806,-5.2915,-5.293,-5.2929,-5.2924,-5.2933,-5.2934,-5.2956,-5.2942,-5.291,-5.2908,-5.2907,-5.2905,0,-5.2083,-5.2194,-5.2308,-5.2331,-5.2366,-5.242,-5.2436,-5.2466,-5.2506,-5.2556,-5.2582,-5.2642,-5.2675,-5.2722,-5.2703,-5.2636,-5.2836,-5.274,-5.2835,-5.2836,-5.288,-5.2877,-5.3166,-5.2903,-5.2903,-5.2902,-5.2902,0,-5.1903,-5.1954,-5.2121,-5.2148,-5.2178,-5.2253,-5.231,-5.2371,-5.2406,-5.2402,-5.2441,-5.2405,-5.25,-5.2405,-5.2535,-5.2453,-5.2488,-5.2495,-5.2502,-5.2509,-5.2404,-5.2568,-5.2844,-5.2873,-5.2516,-5.2513,-5.251,0,-5.1651,-5.1816,-5.1793,-5.1951,-5.2026,-5.1964,-5.2047,-5.2079,-5.2081,-5.2143,-5.2144,-5.2216,-5.2143,-5.2163,-5.2229,-5.2232,-5.2339,-5.2218,-5.2308,-5.2311,-5.23,-5.2554,-5.2599,-5.2786,-5.2469,-5.2473,-5.2476,0,-5.1454,-5.1495,-5.1525,-5.155,-5.1589,-5.165,-5.1745,-5.181,-5.1853,-5.1895,-5.1973,-5.2074,-5.2022,-5.2057,-5.2034,-5.2103,-5.2266,-5.2039,-5.2039,-5.208,-5.2447,-5.2489,-5.252,-5.2235,-5.224,-5.2244,-5.2443,0,-5.1184,-5.1265,-5.1346,-5.1404,-5.1449,-5.1548,-5.1533,-5.1582,-5.1556,-5.1554,-5.167,-5.1692,-5.1758,-5.179,-5.1764,-5.1928,-5.1898,-5.1842,-5.1749,-5.1916,-5.1981,-5.2008,-5.1653,-5.1651,-5.1648,-5.1646,0,0,-5.0945,-5.1061,-5.1031,-5.1123,-5.1159,-5.1093,-5.12,-5.1227,-5.1285,-5.1312,-5.1259,-5.1404,-5.1425,-5.1567,-5.1617,-5.1644,-5.1672,-5.1614,-5.1837,-5.1858,-5.1878,-5.1948,-5.1976,-5.1642,-5.1641,-5.164,-5.164,0,-5.0843,-5.0866,-5.0972,-5.0999,-5.1039,-5.1032,-5.1058,-5.1085,-5.1089,-5.1202,-5.1145,-5.1213,-5.1329,-5.1359,-5.1389,-5.1597,-5.155,-5.1618,-5.1735,-5.1814,-5.1838,-5.186,-5.1934,-5.1961,-5.1634,-5.1634,-5.1634,0,-5.0646,-5.0666,-5.0716,-5.0796,-5.0821,-5.0899,-5.0797,-5.0884,-5.0941,-5.0864,-5.0977,-5.0987,-5.1025,-5.1161,-5.1221,-5.1175,-5.144,-5.1354,-5.1369,-5.1375,-5.145,-5.148,-5.1506,-5.116,-5.1159,-5.1157,0,0,-5.056,-5.0635,-5.0648,-5.0772,-5.0792,-5.0784,-5.0824,-5.0801,-5.0837,-5.0851,-5.0863,-5.09,-5.0967,-5.1012,-5.1074,-5.1225,-5.1231,-5.1296,-5.1319,-5.1337,-5.1353,-5.1434,-5.1463,-5.1151,-5.1151,-5.1151,0,0,-5.0519,-5.0539,-5.0506,-5.0648,-5.0684,-5.0704,-5.0781,-5.0741,-5.0795,-5.0782,-5.0748,-5.0756,-5.0882,-5.0895,-5.0817,-5.1041,-5.0949,-5.0967,-5.1028,-5.1056,-5.1078,-5.1072,-5.0716,0,0,0,0,0,-5.0406,-5.0536,-5.0506,-5.0527,-5.0628,-5.0721,-5.0734,-5.0709,-5.0644,-5.0705,-5.0709,-5.0657,-5.0845,-5.0775,-5.0797,-5.0885,-5.1074,-5.1088,-5.1101,-5.1214,-5.1244,-5.1268,0,0,0,0,0,0,-5.0414,-5.0441,-5.0502,-5.0529,-5.0551,-5.0716,-5.0602,-5.0598,-5.0637,-5.0625,-5.0657,-5.0658,-5.0638,-5.0762,-5.0782,-5.0866,-5.0709,-5.1079,-5.1091,-5.1101,-5.1224,-5.1248,-5.1269,0,0,0,0,0,-5.0421,-5.0442,-5.061,-5.0527,-5.0546,-5.0544,-5.0596,-5.0593,-5.0622,-5.0628,-5.0627,-5.06,-5.0641,-5.0656,-5.0774,-5.0858,-5.0695,-5.0702,-5.1087,-5.1096,-5.1104,-5.1236,0,0,0,0,0,0,-5.0426,-5.0439,-5.0613,-5.0618,-5.0476,-5.0534,-5.0542,-5.0588,-5.0622,-5.0622,-5.0568,-5.0559,-5.0644,-5.0655,-5.0667,-5.0856,-5.0683,-5.0691,-5.0696,-5.1094,-5.1101,-5.1107,0,0,0,0,0,0,-5.0428,-5.0444,-5.0615,-5.0553,-5.055,-5.0525,-5.0532,-5.0629,-5.0623,-5.056,-5.0553,-5.0563,-5.0626,-5.0656,-5.0665,-5.0817,-5.0674,-5.0682,-5.0687,-5.069,-5.11,-5.1105,0,0,0,0,0,0,-5.0434,-5.0448,-5.0551,-5.0549,-5.0547,-5.06,-5.061,-5.0714,-5.057,-5.0559,-5.0556,-5.055,-5.0629,-5.0637,-5.0664,-5.0812,-5.0816,-5.0675,-5.068,-5.0683,-5.0686,0,0,0,0,0,0,0,-5.0439,-5.0351,-5.0584,-5.0546,-5.0544,-5.0663,-5.0665,-5.0666,-5.0568,-5.0563,-5.0558,-5.0552,-5.0633,-5.0641,-5.0649,-5.0809,0,0,-5.0674,-5.0678,0,0,0,0,0,0,0,0,-5.0345,-5.035,-5.0584,-5.0585,-5.0586,-5.0664,-5.0665,-5.0666,-5.0568,-5.0563,-5.0559,-5.0555,-5.0635,-5.0641,-5.0648,0,0,0,0,0,0,0,0,0,0,0,0,0,0,0,-5.0584,-5.0585,0,-5.0664,-5.0665,-5.0666,-5.0567,-5.0563,-5.056,-5.0556,-5.0636,-5.0642,-5.0647,0,0,0,0,0,0,0,0,0,0,0,0,0,0,0,0,0,0,0,0,0,0,0,0,0,0,0,0,0,0,0,0,0,0,0,0,0,0,0,0,0,0,0,0,0,0,0,0,0,0,0,0,0,0,0,0,0,0,0,0,0,0,0,0,0,0,0,0,0]}],[{"header":{"parameterUnit":"kt","parameterCategory":2,"dx":1,"dy":1,"la1":30.253999710083008,"la2":30.299108505249023,"lo1":-89.0895004272461,"lo2":-89.04439544677734,"nx":28,"ny":28,"refTime":"2022-10-14T21:00:00:Z","depth":0,"parameterNumber":2,"parameterNumberName":"V-component_of_WINDS"},"data":[1.1143,1.1177,1.1192,1.1237,1.1258,1.1292,1.1309,1.1332,1.1354,1.1396,1.1422,1.144,1.1467,1.1502,1.1531,1.1538,1.155,1.1553,1.156,1.1536,1.1534,1.1531,1.1525,1.1555,1.1555,1.1584,1.1584,1.1584,1.1128,1.115,1.1178,1.1214,1.1239,1.1246,1.1276,1.1295,1.1325,1.1352,1.1378,1.1415,1.1446,1.1473,1.1505,1.1521,1.1526,1.1529,1.1528,1.1532,1.1507,1.15,1.1525,1.1525,1.1525,1.1525,1.1525,1.1525,1.1106,1.1125,1.1156,1.1186,1.1208,1.1233,1.1254,1.1275,1.1302,1.1337,1.1347,1.138,1.1409,1.1453,1.1471,1.1498,1.1496,1.1504,1.1506,1.1508,1.1509,1.1468,1.1503,1.1503,1.1503,1.1503,1.1503,0,1.1094,1.1105,1.1132,1.1164,1.1186,1.1211,1.1237,1.125,1.1276,1.1296,1.1328,1.1348,1.1388,1.1419,1.1451,1.1468,1.1476,1.1477,1.1483,1.1479,1.1472,1.1477,1.1437,1.1476,1.1476,1.1475,1.1475,1.1475,1.1073,1.1093,1.1131,1.1148,1.1165,1.1192,1.121,1.1231,1.125,1.1284,1.1299,1.133,1.1356,1.1403,1.1425,1.1454,1.1458,1.1472,1.1462,1.1459,1.146,1.1459,1.1462,1.1473,1.1474,1.1474,1.1474,0,1.1061,1.1083,1.1117,1.1152,1.1161,1.1181,1.121,1.123,1.1247,1.1276,1.1284,1.131,1.1339,1.1359,1.1396,1.1406,1.144,1.1443,1.1432,1.1433,1.1449,1.1447,1.1493,1.15,1.1468,1.1468,1.1469,0,1.1052,1.1076,1.1108,1.1126,1.1155,1.1175,1.1203,1.122,1.1243,1.1266,1.1278,1.1299,1.1321,1.1345,1.1359,1.139,1.1397,1.1406,1.1409,1.1405,1.1404,1.1415,1.1414,1.1415,1.1414,1.1414,1.1414,0,1.1029,1.1074,1.1105,1.1118,1.1156,1.117,1.1186,1.1212,1.123,1.1255,1.1267,1.1295,1.131,1.1332,1.1349,1.1342,1.1387,1.1381,1.1397,1.1396,1.1405,1.1404,1.144,1.1414,1.1413,1.1413,1.1413,0,1.1025,1.1051,1.1091,1.1124,1.1134,1.1153,1.1183,1.1204,1.123,1.124,1.126,1.127,1.1297,1.129,1.1329,1.1315,1.133,1.1341,1.1342,1.1346,1.1337,1.1355,1.1386,1.1391,1.135,1.135,1.1349,0,1.0995,1.1041,1.1057,1.1095,1.1119,1.1131,1.1153,1.1176,1.1191,1.1213,1.1229,1.1254,1.1252,1.1263,1.1279,1.1297,1.1315,1.1295,1.1327,1.1328,1.1321,1.135,1.135,1.1378,1.1342,1.1343,1.1344,0,1.0973,1.1018,1.1023,1.104,1.1072,1.1091,1.1116,1.1145,1.1159,1.1182,1.1203,1.1237,1.1238,1.1254,1.1264,1.128,1.1303,1.1278,1.1279,1.1283,1.134,1.134,1.1345,1.1306,1.1307,1.1308,1.1338,0,1.0964,1.0989,1.1004,1.1037,1.1055,1.1078,1.1098,1.1114,1.1123,1.1137,1.1168,1.119,1.1217,1.1226,1.1233,1.1264,1.1262,1.1261,1.1255,1.1273,1.1284,1.1288,1.1238,1.1238,1.1238,1.1238,0,0,1.093,1.0965,1.0981,1.1006,1.1022,1.1033,1.1056,1.1072,1.1104,1.1115,1.1112,1.1163,1.1179,1.1215,1.1222,1.1232,1.124,1.1232,1.1264,1.1267,1.127,1.1281,1.1285,1.1238,1.1238,1.1238,1.1238,0,1.0931,1.0948,1.0971,1.0989,1.1016,1.103,1.1036,1.1063,1.1074,1.1103,1.1111,1.1131,1.1169,1.1187,1.1201,1.1228,1.1232,1.1235,1.1244,1.1263,1.1266,1.1268,1.128,1.1283,1.1237,1.1237,1.1237,0,1.0914,1.0935,1.0948,1.0983,1.1,1.1023,1.1022,1.1045,1.1063,1.1071,1.11,1.1114,1.1138,1.1168,1.1182,1.1179,1.1225,1.1212,1.1213,1.1215,1.1234,1.1237,1.1241,1.1199,1.1199,1.1199,0,0,1.0912,1.0934,1.0961,1.0984,1.0995,1.1015,1.1028,1.1038,1.1059,1.1068,1.1085,1.1106,1.1129,1.1143,1.1164,1.1194,1.1201,1.1207,1.1209,1.121,1.1213,1.1232,1.1235,1.1198,1.1198,1.1198,0,0,1.091,1.0943,1.0947,1.0977,1.0998,1.1025,1.1039,1.1044,1.1066,1.1065,1.108,1.1086,1.1114,1.1127,1.1115,1.1163,1.1156,1.1159,1.1153,1.1156,1.1157,1.1154,1.1115,0,0,0,0,0,1.092,1.0939,1.0943,1.0951,1.0994,1.1024,1.1029,1.1043,1.1039,1.1049,1.1065,1.1068,1.1124,1.1114,1.1121,1.1134,1.1188,1.119,1.1192,1.1191,1.1194,1.1196,0,0,0,0,0,0,1.0923,1.0932,1.0943,1.0971,1.0981,1.1023,1.1019,1.1024,1.1038,1.1038,1.1065,1.1069,1.108,1.1111,1.1117,1.1129,1.1113,1.1189,1.1191,1.1192,1.1192,1.1194,1.1196,0,0,0,0,0,1.0926,1.0933,1.0999,1.0971,1.0979,1.1002,1.1019,1.1022,1.1033,1.1057,1.1061,1.1042,1.108,1.1086,1.1115,1.1126,1.1109,1.1111,1.119,1.1191,1.1192,1.1193,0,0,0,0,0,0,1.0928,1.0937,1.1001,1.1004,1.0964,1.1,1.1006,1.1021,1.1051,1.1056,1.1035,1.1035,1.108,1.1085,1.109,1.1124,1.1106,1.1108,1.1109,1.1191,1.1192,1.1193,0,0,0,0,0,0,1.0933,1.0939,1.1002,1.0993,1.0995,1.0998,1.1003,1.1029,1.1052,1.1028,1.1029,1.1035,1.1073,1.1084,1.1088,1.1127,1.1103,1.1105,1.1107,1.1108,1.1192,1.1192,0,0,0,0,0,0,1.0936,1.0941,1.0993,1.0994,1.0996,1.1032,1.102,1.1064,1.1045,1.1026,1.1043,1.1043,1.1072,1.1076,1.1087,1.1124,1.1126,1.1103,1.1105,1.1106,1.1106,0,0,0,0,0,0,0,1.0938,1.0897,1.0983,1.0995,1.0997,1.1033,1.1034,1.1034,1.1044,1.1044,1.1043,1.1043,1.1091,1.1093,1.1095,1.1122,0,0,1.1103,1.1104,0,0,0,0,0,0,0,0,1.0895,1.0897,1.0983,1.0983,1.0984,1.1033,1.1033,1.1034,1.1044,1.1044,1.1043,1.1043,1.1091,1.1093,1.1095,0,0,0,0,0,0,0,0,0,0,0,0,0,0,0,1.0983,1.0983,0,1.1033,1.1033,1.1034,1.1044,1.1044,1.1044,1.1043,1.1092,1.1093,1.1095,0,0,0,0,0,0,0,0,0,0,0,0,0,0,0,0,0,0,0,0,0,0,0,0,0,0,0,0,0,0,0,0,0,0,0,0,0,0,0,0,0,0,0,0,0,0,0,0,0,0,0,0,0,0,0,0,0,0,0,0,0,0,0,0,0,0,0,0,0]}]]]